EW3643 Weather Reports


Display with metric or nautical units.
time (UTC)temp
F
wind
direction
speed
MPH
gust
MPH
rain 1hr
in
rain 24hr
in
rain mn
in
humidity
%
barometer
mb
20260510103804 51 96 0.0 0.0 0.00 0.00 0.00 94 1012.6
20260510102737 50 96 0.0 0.0 0.00 0.00 0.00 94 1012.6
20260510102233 50 96 0.0 0.0 0.00 0.00 0.00 94 1012.6
20260510101730 50 96 0.0 0.0 0.00 0.00 0.00 94 1012.3
20260510100730 50 96 0.0 0.0 0.00 0.00 0.00 94 1012.0
20260510100228 50 96 0.0 0.0 0.00 0.00 0.00 94 1012.0
20260510095727 50 96 0.0 0.0 0.00 0.00 0.00 94 1012.0
20260510095208 50 96 0.0 0.0 0.00 0.00 0.00 94 1012.1
20260510094709 50 96 0.0 0.0 0.00 0.00 0.00 94 1012.0
20260510094207 49 96 0.0 0.0 0.00 0.00 0.00 94 1012.0
20260510093709 49 96 0.0 0.0 0.00 0.00 0.00 94 1012.1
20260510092704 50 96 0.0 0.0 0.00 0.00 0.00 94 1012.0
20260510092204 50 96 0.0 0.0 0.00 0.00 0.00 94 1011.9
20260510091702 50 96 0.0 0.0 0.00 0.00 0.00 94 1011.9
20260510091202 51 96 0.0 0.0 0.00 0.00 0.00 94 1011.8
20260510090704 51 96 0.0 1.0 0.00 0.00 0.00 94 1012.0
20260510090202 51 96 1.0 3.0 0.00 0.00 0.00 94 1011.7
20260510085158 51 96 1.0 3.0 0.00 0.00 0.00 94 1011.9
20260510084142 51 104 1.0 4.0 0.00 0.00 0.00 94 1012.3
20260510083638 50 210 1.0 4.0 0.00 0.00 0.00 94 1012.1
20260510083143 49 60 1.0 7.0 0.00 0.00 0.00 94 1012.1
20260510082641 48 117 1.0 7.0 0.00 0.00 0.00 94 1012.0
20260510082137 48 87 0.0 0.0 0.00 0.00 0.00 94 1011.5
20260510081632 48 87 0.0 0.0 0.00 0.00 0.00 94 1011.3
20260510081132 48 87 0.0 0.0 0.00 0.00 0.00 93 1011.4
20260510080630 48 87 0.0 0.0 0.00 0.00 0.00 94 1011.2
20260510080128 48 87 0.0 0.0 0.00 0.00 0.00 94 1011.4
20260510075620 49 87 0.0 0.0 0.00 0.00 0.00 94 1011.2
20260510075119 49 87 0.0 0.0 0.00 0.00 0.00 94 1011.3
20260510074615 49 87 0.0 0.0 0.00 0.00 0.00 94 1011.3
20260510074109 48 87 0.0 0.0 0.00 0.00 0.00 94 1011.2
20260510073611 48 87 0.0 0.0 0.00 0.00 0.00 94 1011.1
20260510073109 48 87 0.0 0.0 0.00 0.00 0.00 94 1011.1
20260510072606 49 87 0.0 0.0 0.00 0.00 0.00 94 1011.2
20260510072103 49 87 0.0 0.0 0.00 0.00 0.00 94 1011.2
20260510071604 48 87 0.0 0.0 0.00 0.00 0.00 93 1011.1
20260510071103 48 87 0.0 0.0 0.00 0.00 0.00 93 1011.1
20260510065604 49 87 0.0 0.0 0.00 0.00 0.00 94 1010.8
20260510064605 48 87 0.0 0.0 0.00 0.00 0.00 93 1010.7
20260510064102 48 87 0.0 0.0 0.00 0.00 0.00 93 1010.7
20260510063602 48 87 0.0 0.0 0.00 0.00 0.00 93 1010.7
20260510063102 49 87 0.0 0.0 0.00 0.00 0.00 93 1010.8
20260510062602 49 87 0.0 0.0 0.00 0.00 0.00 93 1010.9
20260510062102 49 87 0.0 0.0 0.00 0.00 0.00 93 1010.9
20260510061601 49 87 0.0 0.0 0.00 0.00 0.00 93 1011.0
20260510061103 49 87 0.0 0.0 0.00 0.00 0.00 93 1010.9
20260510060602 49 87 0.0 0.0 0.00 0.00 0.00 93 1010.9
20260510055102 49 87 0.0 0.0 0.00 0.00 0.00 93 1010.9
20260510054106 49 87 0.0 0.0 0.00 0.00 0.00 93 1011.0
20260510053604 49 87 0.0 0.0 0.00 0.00 0.00 93 1011.1
20260510053103 49 87 0.0 0.0 0.00 0.00 0.00 93 1011.2
20260510052604 49 87 0.0 0.0 0.00 0.00 0.00 93 1011.1
20260510052102 49 87 0.0 0.0 0.00 0.00 0.00 93 1011.3
20260510051603 49 87 0.0 0.0 0.00 0.00 0.00 93 1011.3
20260510051102 49 87 0.0 0.0 0.00 0.00 0.00 93 1011.3
20260510050604 49 87 0.0 0.0 0.00 0.00 0.00 93 1011.4
20260510045602 49 87 0.0 0.0 0.00 0.00 0.00 93 1011.4
20260510045104 49 87 0.0 0.0 0.00 0.00 0.00 93 1011.5
20260510044604 49 87 0.0 0.0 0.00 0.00 0.00 93 1011.5
20260510044105 49 87 0.0 0.0 0.00 0.00 0.00 93 1011.5
20260510043052 50 87 0.0 0.0 0.00 0.00 0.00 93 1011.4
20260510042546 49 87 0.0 0.0 0.00 0.00 0.00 93 1011.5
20260510042041 49 87 0.0 0.0 0.00 0.00 0.00 93 1011.4
20260510041533 50 87 0.0 0.0 0.00 0.00 0.00 93 1011.4
20260510040525 50 87 0.0 0.0 0.00 0.00 0.00 93 1011.5
20260510040033 50 87 0.0 0.0 0.00 0.00 0.00 93 1011.5
20260510035005 50 87 0.0 0.0 0.00 0.00 0.00 93 1011.5
20260510034504 50 87 0.0 0.0 0.00 0.00 0.00 93 1011.4
20260510034006 50 87 0.0 0.0 0.00 0.00 0.00 93 1011.4
20260510033504 50 87 0.0 0.0 0.00 0.00 0.00 93 1011.4
20260510032502 51 87 0.0 0.0 0.00 0.00 0.00 93 1011.3
20260510032004 51 87 0.0 0.0 0.00 0.00 0.00 93 1011.4
20260510031503 51 87 0.0 0.0 0.00 0.00 0.00 93 1011.4
20260510031002 51 87 0.0 0.0 0.00 0.00 0.00 92 1011.3
20260510030503 51 87 0.0 0.0 0.00 0.00 0.00 92 1011.3
20260510030004 51 87 0.0 0.0 0.00 0.00 0.00 92 1011.1
20260510025441 51 87 0.0 0.0 0.00 0.00 0.00 92 1011.1
20260510024934 51 87 0.0 0.0 0.00 0.00 0.00 93 1011.0
20260510024433 51 87 0.0 0.0 0.00 0.00 0.00 92 1011.1
20260510023935 51 87 0.0 0.0 0.00 0.00 0.00 92 1011.1
20260510023424 51 87 0.0 0.0 0.00 0.00 0.00 92 1011.0
20260510022924 51 87 0.0 0.0 0.00 0.00 0.00 92 1011.0
20260510022424 51 87 0.0 0.0 0.00 0.00 0.00 92 1011.1
20260510021909 52 87 0.0 0.0 0.00 0.00 0.00 92 1011.4
20260510020418 52 87 0.0 0.0 0.00 0.00 0.00 92 1011.0
20260510015912 52 87 0.0 0.0 0.00 0.00 0.00 92 1010.8
20260510015411 53 87 0.0 0.0 0.00 0.00 0.00 92 1010.7
20260510014405 53 87 0.0 0.0 0.00 0.00 0.00 91 1010.6
20260510013405 53 87 0.0 0.0 0.00 0.00 0.00 91 1010.6
20260510012906 53 87 0.0 0.0 0.00 0.00 0.00 91 1010.8
20260510012405 53 87 0.0 0.0 0.00 0.00 0.00 91 1010.7
20260510011918 53 87 0.0 0.0 0.00 0.00 0.00 91 1010.9
20260510011405 54 87 0.0 0.0 0.00 0.00 0.00 91 1010.6
20260510010906 54 87 0.0 0.0 0.00 0.00 0.00 91 1010.6
20260510010406 54 87 0.0 0.0 0.00 0.00 0.00 90 1010.5
20260510005904 54 87 0.0 0.0 0.00 0.00 0.00 90 1010.5
20260510004905 55 87 0.0 0.0 0.00 0.00 0.00 90 1010.6
20260510004403 55 87 0.0 0.0 0.00 0.00 0.00 90 1010.4
20260510003405 56 87 0.0 0.0 0.00 0.00 0.00 89 1010.4
20260510002906 56 87 0.0 0.0 0.00 0.00 0.00 88 1010.5
20260510002405 56 87 0.0 0.0 0.00 0.00 0.00 88 1010.4
20260510001903 57 87 0.0 0.0 0.00 0.00 0.00 87 1010.6
20260510000917 57 87 0.0 1.0 0.00 0.00 0.00 87 1010.4
20260510000404 58 87 1.0 1.0 0.00 0.00 0.00 86 1010.4
20260509235403 58 87 0.0 1.0 0.00 0.00 0.00 85 1010.4
20260509234905 59 87 0.0 2.0 0.00 0.00 0.00 85 1010.5
20260509234404 59 87 1.0 2.0 0.00 0.00 0.00 84 1010.4
20260509233904 59 87 1.0 2.0 0.00 0.00 0.00 84 1010.5
20260509233404 60 87 1.0 3.0 0.00 0.00 0.00 84 1010.4
20260509232903 60 87 1.0 3.0 0.00 0.00 0.00 83 1010.4
20260509232404 60 87 1.0 3.0 0.00 0.00 0.00 83 1010.4
20260509231405 60 67 1.0 4.0 0.00 0.00 0.00 83 1010.3
20260509230904 60 82 2.0 6.0 0.00 0.00 0.00 82 1010.3
20260509225904 61 92 1.0 4.0 0.00 0.00 0.00 82 1010.3
20260509224903 61 88 1.0 3.0 0.00 0.00 0.00 82 1010.2
20260509224404 61 92 1.0 4.0 0.00 0.00 0.00 82 1010.2
20260509223905 61 93 1.0 4.0 0.00 0.00 0.00 81 1010.2
20260509223404 62 94 1.0 3.0 0.00 0.00 0.00 80 1010.2
20260509222903 62 94 1.0 3.0 0.00 0.00 0.00 80 1010.3
20260509222403 61 93 1.0 6.0 0.00 0.00 0.00 81 1010.3
20260509221902 61 94 2.0 6.0 0.00 0.00 0.00 80 1010.6
20260509221405 62 92 1.0 5.0 0.00 0.00 0.00 79 1010.4
20260509220904 62 94 0.0 1.0 0.00 0.00 0.00 80 1010.4
20260509215904 61 94 0.0 2.0 0.00 0.00 0.00 81 1010.2
20260509215403 61 94 0.0 1.0 0.00 0.00 0.00 82 1010.3
20260509214904 61 94 1.0 4.0 0.00 0.00 0.00 82 1010.3
20260509214403 61 94 1.0 4.0 0.00 0.00 0.00 81 1010.2
20260509213903 61 104 0.0 2.0 0.00 0.00 0.00 81 1010.3
20260509213403 61 148 0.0 1.0 0.00 0.00 0.00 80 1010.3
20260509210905 61 148 1.0 2.0 0.00 0.00 0.00 80 1010.2
20260509210404 62 148 1.0 3.0 0.00 0.00 0.00 80 1010.1
20260509205405 62 102 0.0 0.0 0.00 0.00 0.00 79 1010.1
20260509204905 62 102 0.0 0.0 0.00 0.00 0.00 79 1010.2
20260509204404 62 102 0.0 0.0 0.00 0.00 0.00 78 1010.2
20260509203908 62 102 0.0 0.0 0.00 0.00 0.00 79 1010.2
20260509203412 62 102 0.0 1.0 0.00 0.00 0.00 79 1010.2
20260509202856 62 102 0.0 2.0 0.00 0.00 0.00 78 1010.3
20260509201901 62 102 1.0 3.0 0.00 0.00 0.00 77 1010.5
20260509201400 62 94 1.0 3.0 0.00 0.00 0.00 76 1010.3
20260509200850 62 88 1.0 4.0 0.00 0.00 0.00 77 1010.3
20260509200355 63 88 2.0 4.0 0.00 0.00 0.00 77 1010.3
20260509195847 63 114 2.0 6.0 0.00 0.00 0.00 76 1010.4
20260509194846 63 179 2.0 7.0 0.00 0.00 0.00 76 1010.4
20260509194342 63 105 1.0 4.0 0.00 0.00 0.00 77 1010.3
20260509193842 62 101 2.0 6.0 0.00 0.00 0.00 78 1010.2
20260509193342 62 97 1.0 6.0 0.00 0.00 0.00 77 1010.3
20260509192843 62 194 1.0 3.0 0.00 0.00 0.00 79 1010.2
20260509192342 62 62 1.0 4.0 0.00 0.00 0.00 79 1010.3
20260509191836 61 49 1.0 5.0 0.00 0.00 0.00 78 1010.5
20260509191332 62 180 2.0 6.0 0.00 0.00 0.00 77 1010.7
20260509190835 63 309 1.0 6.0 0.00 0.00 0.00 77 1010.8
20260509190335 62 288 1.0 5.0 0.00 0.00 0.00 78 1011.0
20260509185832 62 249 1.0 4.0 0.00 0.00 0.00 78 1011.0
20260509185331 62 282 1.0 4.0 0.00 0.00 0.00 79 1011.1
20260509184835 62 261 1.0 4.0 0.00 0.00 0.00 79 1011.3
20260509184325 61 269 1.0 4.0 0.00 0.00 0.00 78 1011.3
20260509183826 61 152 1.0 4.0 0.00 0.00 0.00 78 1011.5
20260509182826 61 192 0.0 3.0 0.00 0.00 0.00 81 1011.5
20260509182325 61 192 1.0 3.0 0.00 0.00 0.00 78 1011.6
20260509180811 62 156 1.0 3.0 0.00 0.00 0.00 76 1011.6
20260509180324 62 156 1.0 3.0 0.00 0.00 0.00 75 1011.6
20260509175311 63 77 2.0 6.0 0.00 0.00 0.00 75 1011.7
20260509174810 62 285 2.0 9.0 0.00 0.00 0.00 78 1011.7
20260509174311 62 271 3.0 9.0 0.00 0.00 0.00 76 1011.8
20260509173805 62 283 2.0 8.0 0.00 0.00 0.00 77 1011.8
20260509173304 62 337 1.0 6.0 0.00 0.00 0.00 78 1011.6
20260509172804 62 279 2.0 6.0 0.00 0.00 0.00 78 1011.6
20260509172306 61 281 3.0 7.0 0.00 0.00 0.00 77 1011.7
20260509171804 61 275 4.0 8.0 0.00 0.00 0.00 77 1011.8
20260509171303 62 260 4.0 8.0 0.00 0.00 0.00 77 1011.8
20260509170803 62 278 3.0 6.0 0.00 0.00 0.00 78 1011.8
20260509165803 62 279 2.0 6.0 0.00 0.00 0.00 78 1011.7
20260509165306 61 279 1.0 4.0 0.00 0.00 0.00 79 1011.7
20260509164804 61 279 2.0 6.0 0.00 0.00 0.00 78 1011.7
20260509164304 61 277 3.0 7.0 0.00 0.00 0.00 76 1011.7
20260509163803 62 277 5.0 8.0 0.00 0.00 0.00 72 1011.9
20260509161303 61 279 1.0 4.0 0.00 0.00 0.00 82 1011.8
20260509160804 61 9 0.0 2.0 0.00 0.00 0.00 84 1012.0
20260509160305 60 11 0.0 0.0 0.00 0.00 0.00 85 1012.0
20260509155753 60 11 0.0 1.0 0.00 0.00 0.00 86 1012.2
20260509155254 60 11 1.0 3.0 0.00 0.00 0.00 84 1012.2
20260509154738 61 262 2.0 4.0 0.00 0.00 0.00 81 1012.3
20260509154233 61 258 3.0 7.0 0.00 0.00 0.00 80 1012.5
20260509153731 61 263 4.0 7.0 0.00 0.00 0.00 80 1012.5
20260509153232 61 298 5.0 8.0 0.00 0.00 0.00 80 1012.8
20260509152731 61 250 5.0 9.0 0.00 0.00 0.00 80 1012.8
20260509151731 62 260 6.0 9.0 0.00 0.00 0.00 76 1012.7
20260509151231 62 242 7.0 10.0 0.00 0.00 0.00 76 1012.7
20260509150732 62 205 8.0 11.0 0.00 0.00 0.00 75 1012.7
20260509150232 63 220 8.0 13.0 0.00 0.00 0.00 71 1012.8
20260509145733 64 250 9.0 13.0 0.00 0.00 0.00 70 1012.9
20260509144731 64 223 8.0 18.0 0.00 0.00 0.00 70 1012.8
20260509144231 63 220 9.0 18.0 0.00 0.00 0.00 70 1012.7
20260509143731 64 209 9.0 15.0 0.00 0.00 0.00 71 1012.8
20260509143232 64 210 10.0 15.0 0.00 0.00 0.00 71 1012.6
20260509142732 63 178 9.0 18.0 0.00 0.00 0.00 72 1012.6
20260509142232 64 262 9.0 18.0 0.00 0.00 0.00 72 1012.6
20260509141731 64 193 10.0 17.0 0.00 0.00 0.00 71 1012.6
20260509140731 64 184 9.0 17.0 0.00 0.00 0.00 74 1012.5
20260509140232 64 226 9.0 15.0 0.00 0.00 0.00 75 1012.4
20260509134733 63 215 8.0 17.0 0.00 0.00 0.00 75 1012.5
20260509134231 63 238 8.0 17.0 0.00 0.00 0.00 76 1012.5
20260509133732 62 194 8.0 16.0 0.00 0.00 0.00 76 1012.4
20260509133232 62 215 7.0 16.0 0.00 0.00 0.00 78 1012.4
20260509132731 61 199 7.0 12.0 0.00 0.00 0.00 78 1012.4
20260509132232 61 238 6.0 11.0 0.00 0.00 0.00 79 1012.5
20260509131731 61 171 6.0 11.0 0.00 0.00 0.00 80 1012.4
20260509130731 60 193 6.0 16.0 0.00 0.00 0.00 79 1012.4
20260509130231 60 196 6.0 13.0 0.00 0.00 0.00 79 1012.4
20260509125732 60 113 5.0 12.0 0.00 0.00 0.00 80 1012.4
20260509125231 60 223 4.0 12.0 0.00 0.00 0.00 80 1012.4
20260509124231 60 180 5.0 12.0 0.00 0.00 0.00 81 1012.5
20260509123731 59 243 5.0 12.0 0.00 0.00 0.00 81 1012.4
20260509123231 59 198 5.0 10.0 0.00 0.00 0.00 81 1012.4
20260509122732 59 189 5.0 9.0 0.00 0.00 0.00 81 1012.3
20260509122233 59 188 5.0 9.0 0.00 0.00 0.00 82 1012.4
20260509121231 58 196 4.0 9.0 0.00 0.00 0.00 82 1012.4
20260509120232 58 186 4.0 9.0 0.00 0.00 0.00 82 1012.3
20260509115732 58 200 3.0 7.0 0.00 0.00 0.00 83 1012.4
20260509115234 58 194 3.0 7.0 0.00 0.00 0.00 83 1012.3
20260509114731 57 172 4.0 6.0 0.00 0.00 0.00 83 1012.2
20260509114232 57 212 4.0 6.0 0.00 0.00 0.00 83 1012.2
20260509113731 57 193 3.0 6.0 0.00 0.00 0.00 84 1012.2
20260509113231 57 188 3.0 6.0 0.00 0.00 0.00 84 1012.3
20260509112732 56 211 2.0 5.0 0.00 0.00 0.00 84 1012.1
20260509112232 56 214 2.0 5.0 0.00 0.00 0.00 84 1012.0
20260509111732 56 185 2.0 6.0 0.00 0.00 0.00 84 1012.2
20260509111232 56 184 2.0 6.0 0.00 0.00 0.00 84 1012.2
20260509110732 56 192 2.0 4.0 0.00 0.00 0.00 84 1012.2
20260509110232 56 185 2.0 4.0 0.00 0.00 0.00 84 1012.1
20260509105733 56 166 2.0 4.0 0.00 0.00 0.00 85 1012.2
20260509105233 56 174 2.0 4.0 0.00 0.00 0.00 84 1012.2
20260509104733 56 186 2.0 4.0 0.00 0.00 0.00 84 1012.1